Fresno, CA

2:17 AM PST on November 15, 2019 (GMT -0800)
Fresno Yosemite International

Weather History for KFAT - August, 2019

Change the Weather History Date:

Sunday, August 18, 2019

  Actual Average Record
Temperature  
Mean Temperature 81 °F 82 °F  
Max Temperature 95 °F 97 °F 112 °F (1892)
Min Temperature 66 °F 66 °F 52 °F (1916)
Degree Days  
Heating Degree Days 0    
Month to date heating degree days 0  
Since 1 June heating degree days 0  
Since 1 July heating degree days 0  
Cooling Degree Days 16    
Month to date cooling degree days 359  
Year to date cooling degree days 1678  
Since 1 June cooling degree days 1441  
Growing Degree Days 30 (Base 50)    
Moisture  
Dew Point 49 °F    
Average Humidity 36    
Maximum Humidity 56    
Minimum Humidity 16    
Precipitation  
Precipitation 0.00 in 0.00 in 0.05 in (1975)
Month to date precipitation 0.00 0.00  
Year to date precipitation 9.52 7.85  
Snow  
Snow 0.00 in - - ()
Month to date snowfall 0.0  
Since 1 June snowfall 0.0  
Since 1 July snowfall 0.0  
Snow Depth 0.00 in    
Sea Level Pressure  
Sea Level Pressure 29.81 in    
Wind  
Wind Speed 7 mph (WNW)    
Max Wind Speed 16 mph    
Max Gust Speed 19 mph    
Visibility 10 miles    
Events      
T = Trace of Precipitation, MM = Missing Value Source: NWS Daily Summary

Daily Weather History Graph

Daily Weather History Graph

Search for Another Location

Airport or City:

Astronomy

Aug. 18, 2019 Rise Set
Actual Time 6:18 AM PDT 7:46 PM PDT
Civil Twilight 5:51 AM PDT 8:13 PM PDT
Nautical Twilight 5:18 AM PDT 8:46 PM PDT
Astronomical Twilight 4:43 AM PDT 9:20 PM PDT
Moon 9:47 PM PDT (8/18) 9:04 AM PDT (8/18)
Length of Visible Light 14h 22m
Length of Day
13h 27m
Waning Gibbous, 91% of the Moon is Illuminated
Aug 18
Waning Gibbous
Aug 23
Last Quarter
Aug 30
New
Sep 5
First Quarter
Sep 13
Full

Hourly Weather History & Observations

Time (PDT) Temp. Heat Index Dew Point Humidity Pressure Visibility Wind Dir Wind Speed Gust Speed Precip Events Conditions
12:53 AM 73.0 °F - 52.0 °F 48% 29.75 in 10.0 mi NNW 9.2 mph - N/A   Clear
1:53 AM 72.0 °F - 52.0 °F 49% 29.75 in 10.0 mi NW 10.4 mph - N/A   Clear
2:53 AM 70.0 °F - 50.0 °F 49% 29.76 in 10.0 mi NNW 6.9 mph - N/A   Clear
3:53 AM 68.0 °F - 51.1 °F 55% 29.77 in 10.0 mi NNW 3.5 mph - N/A   Clear
4:53 AM 68.0 °F - 48.9 °F 50% 29.78 in 10.0 mi SW 4.6 mph - N/A   Clear
5:53 AM 66.9 °F - 48.9 °F 52% 29.79 in 10.0 mi West 4.6 mph - N/A   Clear
6:53 AM 66.9 °F - 50.0 °F 54% 29.81 in 10.0 mi North 4.6 mph - N/A   Clear
7:53 AM 69.1 °F - 52.0 °F 54% 29.82 in 10.0 mi North 4.6 mph - N/A   Clear
8:53 AM 73.0 °F - 52.0 °F 48% 29.83 in 10.0 mi NNE 4.6 mph - N/A   Clear
9:53 AM 77.0 °F - 54.0 °F 45% 29.85 in 10.0 mi SSE 6.9 mph - N/A   Clear
10:53 AM 80.1 °F 79.9 °F 53.1 °F 39% 29.86 in 10.0 mi SE 6.9 mph - N/A   Clear
11:53 AM 84.0 °F - 52.0 °F 33% 29.85 in 10.0 mi SSE 5.8 mph - N/A   Clear
12:53 PM 88.0 °F - 46.9 °F 24% 29.84 in 10.0 mi SSE 6.9 mph - N/A   Clear
1:53 PM 91.0 °F - 46.9 °F 22% 29.82 in 10.0 mi SE 5.8 mph - N/A   Clear
2:53 PM 93.0 °F - 42.1 °F 17% 29.81 in 10.0 mi SSE 6.9 mph - N/A   Clear
3:53 PM 93.9 °F - 45.0 °F 18% 29.79 in 10.0 mi WSW 6.9 mph - N/A   Partly Cloudy
4:53 PM 93.9 °F - 44.1 °F 18% 29.78 in 10.0 mi WSW 5.8 mph - N/A   Partly Cloudy
5:53 PM 95.0 °F - 42.1 °F 16% 29.77 in 10.0 mi West 3.5 mph - N/A   Clear
6:53 PM 93.0 °F - 46.9 °F 20% 29.77 in 10.0 mi NW 8.1 mph - N/A   Clear
7:53 PM 89.6 °F - 51.8 °F 27% 29.78 in 10.0 mi NW 12.7 mph - N/A   Scattered Clouds
8:53 PM 84.0 °F 82.6 °F 54.0 °F 35% 29.80 in 10.0 mi NW 12.7 mph - N/A   Clear
9:53 PM 79.0 °F - 51.1 °F 38% 29.82 in 10.0 mi NW 12.7 mph - N/A   Clear
10:53 PM 75.0 °F - 51.1 °F 43% 29.84 in 10.0 mi NW 11.5 mph - N/A   Clear
11:53 PM 73.0 °F - 50.0 °F 44% 29.85 in 10.0 mi NW 10.4 mph - N/A   Clear